Time,TemperatureF,DewpointF,PressureIn,WindDirection,WindDirectionDegrees,WindSpeedMPH,WindSpeedGustMPH,Humidity,HourlyPrecipIn,Conditions,Clouds,dailyrainin,SoftwareType,DateUTC
2013-02-12 00:00:00,44.1,28.5,30.23,NNW,347,1.0,1.0,54,0.00,,,0.00,Wunderground v.1.15,2013-02-12 08:00:00,
2013-02-12 00:10:00,43.5,28.4,30.23,NE,40,0.0,0.0,55,0.00,,,0.00,Wunderground v.1.15,2013-02-12 08:10:00,
2013-02-12 00:15:00,43.6,28.0,30.23,North,351,0.0,0.0,54,0.00,,,0.00,Wunderground v.1.15,2013-02-12 08:15:00,
2013-02-12 00:20:00,43.6,28.0,30.23,WNW,300,0.0,0.0,54,0.00,,,0.00,Wunderground v.1.15,2013-02-12 08:20:00,
2013-02-12 00:30:00,43.6,27.1,30.24,NE,36,0.0,0.0,52,0.00,,,0.00,Wunderground v.1.15,2013-02-12 08:30:00,
2013-02-12 00:35:00,43.9,26.9,30.23,North,355,1.0,1.0,51,0.00,,,0.00,Wunderground v.1.15,2013-02-12 08:35:00,
2013-02-12 00:40:00,44.0,27.0,30.24,NNW,336,0.0,0.0,51,0.00,,,0.00,Wunderground v.1.15,2013-02-12 08:40:00,
2013-02-12 00:45:00,44.0,26.5,30.24,NNW,337,0.0,1.0,50,0.00,,,0.00,Wunderground v.1.15,2013-02-12 08:45:00,
2013-02-12 00:50:00,44.1,26.6,30.24,ESE,111,1.0,1.0,50,0.00,,,0.00,Wunderground v.1.15,2013-02-12 08:50:00,
2013-02-12 00:55:00,44.2,26.7,30.24,ENE,73,1.0,2.0,50,0.00,,,0.00,Wunderground v.1.15,2013-02-12 08:55:00,
2013-02-12 01:00:00,44.4,26.4,30.24,NW,321,1.0,3.0,49,0.00,,,0.00,Wunderground v.1.15,2013-02-12 09:00:00,
2013-02-12 01:10:00,44.5,26.5,30.24,NNW,346,1.0,1.0,49,0.00,,,0.00,Wunderground v.1.15,2013-02-12 09:10:00,
2013-02-12 01:15:00,44.6,26.6,30.24,West,271,1.0,1.0,49,0.00,,,0.00,Wunderground v.1.15,2013-02-12 09:15:00,
2013-02-12 01:20:00,44.4,26.9,30.24,North,360,0.0,1.0,50,0.00,,,0.00,Wunderground v.1.15,2013-02-12 09:20:00,
2013-02-12 01:25:00,44.2,26.7,30.24,NNW,344,0.0,1.0,50,0.00,,,0.00,Wunderground v.1.15,2013-02-12 09:25:00,
2013-02-12 01:30:00,44.0,27.0,30.24,NNW,337,0.0,0.0,51,0.00,,,0.00,Wunderground v.1.15,2013-02-12 09:30:00,
2013-02-12 01:35:00,43.7,26.7,30.24,NNW,338,0.0,0.0,51,0.00,,,0.00,Wunderground v.1.15,2013-02-12 09:35:00,
2013-02-12 01:40:00,43.5,27.0,30.24,NNW,337,0.0,0.0,52,0.00,,,0.00,Wunderground v.1.15,2013-02-12 09:40:00,
2013-02-12 01:50:00,43.4,26.5,30.25,East,90,0.0,0.0,51,0.00,,,0.00,Wunderground v.1.15,2013-02-12 09:50:00,
2013-02-12 01:55:00,43.6,27.1,30.25,ENE,74,0.0,0.0,52,0.00,,,0.00,Wunderground v.1.15,2013-02-12 09:55:00,
2013-02-12 02:00:00,43.4,26.9,30.24,SE,131,0.0,0.0,52,0.00,,,0.00,Wunderground v.1.15,2013-02-12 10:00:00,
2013-02-12 02:10:00,43.6,27.1,30.25,NE,45,0.0,0.0,52,0.00,,,0.00,Wunderground v.1.15,2013-02-12 10:10:00,
2013-02-12 02:15:00,43.5,27.0,30.25,NNE,13,0.0,0.0,52,0.00,,,0.00,Wunderground v.1.15,2013-02-12 10:15:00,
2013-02-12 02:25:00,43.6,27.1,30.25,North,9,0.0,1.0,52,0.00,,,0.00,Wunderground v.1.15,2013-02-12 10:25:00,
2013-02-12 02:30:00,43.7,26.7,30.25,North,11,0.0,0.0,51,0.00,,,0.00,Wunderground v.1.15,2013-02-12 10:30:00,
2013-02-12 02:35:00,43.8,27.3,30.25,NW,322,0.0,0.0,52,0.00,,,0.00,Wunderground v.1.15,2013-02-12 10:35:00,
2013-02-12 02:40:00,43.8,27.3,30.25,West,278,0.0,0.0,52,0.00,,,0.00,Wunderground v.1.15,2013-02-12 10:40:00,
2013-02-12 02:45:00,43.7,27.2,30.25,West,269,0.0,0.0,52,0.00,,,0.00,Wunderground v.1.15,2013-02-12 10:45:00,
2013-02-12 02:50:00,43.5,27.5,30.25,WNW,284,0.0,0.0,53,0.00,,,0.00,Wunderground v.1.15,2013-02-12 10:50:00,
2013-02-12 03:00:00,43.5,27.5,30.25,WNW,299,0.0,2.0,53,0.00,,,0.00,Wunderground v.1.15,2013-02-12 11:00:00,
2013-02-12 03:10:00,43.1,27.6,30.25,NE,54,0.0,0.0,54,0.00,,,0.00,Wunderground v.1.15,2013-02-12 11:10:00,
2013-02-12 03:15:00,43.0,27.5,30.25,North,357,0.0,0.0,54,0.00,,,0.00,Wunderground v.1.15,2013-02-12 11:15:00,
2013-02-12 03:20:00,42.6,27.5,30.25,NE,41,0.0,0.0,55,0.00,,,0.00,Wunderground v.1.15,2013-02-12 11:20:00,
2013-02-12 03:25:00,42.5,27.5,30.24,NNE,15,0.0,0.0,55,0.00,,,0.00,Wunderground v.1.15,2013-02-12 11:25:00,
2013-02-12 03:30:00,42.8,27.7,30.24,ENE,62,0.0,1.0,55,0.00,,,0.00,Wunderground v.1.15,2013-02-12 11:30:00,
2013-02-12 03:35:00,42.8,27.7,30.25,NNE,27,0.0,1.0,55,0.00,,,0.00,Wunderground v.1.15,2013-02-12 11:35:00,
2013-02-12 03:40:00,43.1,28.0,30.25,NE,36,0.0,0.0,55,0.00,,,0.00,Wunderground v.1.15,2013-02-12 11:40:00,
2013-02-12 03:50:00,43.4,27.8,30.25,NNE,12,0.0,0.0,54,0.00,,,0.00,Wunderground v.1.15,2013-02-12 11:50:00,
2013-02-12 03:55:00,43.3,27.8,30.25,NNW,332,0.0,0.0,54,0.00,,,0.00,Wunderground v.1.15,2013-02-12 11:55:00,
2013-02-12 04:00:00,43.2,28.1,30.25,NW,305,0.0,1.0,55,0.00,,,0.00,Wunderground v.1.15,2013-02-12 12:00:00,
2013-02-12 04:10:00,43.3,28.2,30.25,NNE,13,0.0,0.0,55,0.00,,,0.00,Wunderground v.1.15,2013-02-12 12:10:00,
2013-02-12 04:15:00,43.5,28.4,30.25,NNE,13,0.0,0.0,55,0.00,,,0.00,Wunderground v.1.15,2013-02-12 12:15:00,
2013-02-12 04:20:00,43.3,28.2,30.25,North,357,0.0,0.0,55,0.00,,,0.00,Wunderground v.1.15,2013-02-12 12:20:00,
2013-02-12 04:25:00,43.3,28.6,30.26,NW,316,0.0,0.0,56,0.00,,,0.00,Wunderground v.1.15,2013-02-12 12:25:00,
2013-02-12 04:30:00,43.2,28.5,30.26,NNE,23,1.0,1.0,56,0.00,,,0.00,Wunderground v.1.15,2013-02-12 12:30:00,
2013-02-12 04:40:00,43.0,28.8,30.26,WNW,295,0.0,1.0,57,0.00,,,0.00,Wunderground v.1.15,2013-02-12 12:40:00,
2013-02-12 04:45:00,43.0,28.8,30.26,SSW,208,0.0,1.0,57,0.00,,,0.00,Wunderground v.1.15,2013-02-12 12:45:00,
2013-02-12 04:50:00,43.1,28.9,30.26,North,359,0.0,0.0,57,0.00,,,0.00,Wunderground v.1.15,2013-02-12 12:50:00,
2013-02-12 04:55:00,43.1,28.9,30.26,East,90,0.0,2.0,57,0.00,,,0.00,Wunderground v.1.15,2013-02-12 12:55:00,
2013-02-12 05:00:00,43.3,29.1,30.26,East,84,0.0,0.0,57,0.00,,,0.00,Wunderground v.1.15,2013-02-12 13:00:00,
2013-02-12 05:10:00,43.6,28.9,30.26,North,3,1.0,1.0,56,0.00,,,0.00,Wunderground v.1.15,2013-02-12 13:10:00,
2013-02-12 05:15:00,43.6,28.9,30.26,NNE,14,0.0,1.0,56,0.00,,,0.00,Wunderground v.1.15,2013-02-12 13:15:00,
2013-02-12 05:20:00,43.6,28.9,30.26,NW,319,0.0,0.0,56,0.00,,,0.00,Wunderground v.1.15,2013-02-12 13:20:00,
2013-02-12 05:25:00,43.9,29.2,30.26,NE,53,0.0,0.0,56,0.00,,,0.00,Wunderground v.1.15,2013-02-12 13:25:00,
2013-02-12 05:35:00,43.7,29.0,30.26,WNW,287,0.0,1.0,56,0.00,,,0.00,Wunderground v.1.15,2013-02-12 13:35:00,
2013-02-12 05:40:00,43.7,29.0,30.26,NW,324,0.0,1.0,56,0.00,,,0.00,Wunderground v.1.15,2013-02-12 13:40:00,
2013-02-12 05:45:00,43.7,29.0,30.26,NW,315,1.0,1.0,56,0.00,,,0.00,Wunderground v.1.15,2013-02-12 13:45:00,
2013-02-12 05:50:00,43.8,29.1,30.27,NNW,342,1.0,1.0,56,0.00,,,0.00,Wunderground v.1.15,2013-02-12 13:50:00,
2013-02-12 05:55:00,43.7,29.0,30.27,NNW,340,1.0,1.0,56,0.00,,,0.00,Wunderground v.1.15,2013-02-12 13:55:00,
2013-02-12 06:00:00,43.7,29.0,30.27,NE,40,0.0,0.0,56,0.00,,,0.00,Wunderground v.1.15,2013-02-12 14:00:00,
2013-02-12 06:10:00,44.1,28.5,30.27,North,5,0.0,0.0,54,0.00,,,0.00,Wunderground v.1.15,2013-02-12 14:10:00,
2013-02-12 06:15:00,44.3,28.7,30.27,NNE,32,0.0,0.0,54,0.00,,,0.00,Wunderground v.1.15,2013-02-12 14:15:00,
2013-02-12 06:20:00,44.3,28.7,30.27,WNW,295,0.0,1.0,54,0.00,,,0.00,Wunderground v.1.15,2013-02-12 14:20:00,
2013-02-12 06:25:00,44.3,28.7,30.27,North,351,0.0,1.0,54,0.00,,,0.00,Wunderground v.1.15,2013-02-12 14:25:00,
2013-02-12 06:30:00,44.3,28.7,30.27,North,355,1.0,1.0,54,0.00,,,0.00,Wunderground v.1.15,2013-02-12 14:30:00,
2013-02-12 06:35:00,44.4,28.3,30.27,SW,236,1.0,1.0,53,0.00,,,0.00,Wunderground v.1.15,2013-02-12 14:35:00,
2013-02-12 06:40:00,44.3,28.7,30.27,NW,314,1.0,1.0,54,0.00,,,0.00,Wunderground v.1.15,2013-02-12 14:40:00,
2013-02-12 06:45:00,44.0,28.4,30.27,NW,319,1.0,3.0,54,0.00,,,0.00,Wunderground v.1.15,2013-02-12 14:45:00,
2013-02-12 06:50:00,44.2,29.0,30.28,North,349,1.0,1.0,55,0.00,,,0.00,Wunderground v.1.15,2013-02-12 14:50:00,
2013-02-12 06:55:00,43.8,28.7,30.28,NNW,337,1.0,1.0,55,0.00,,,0.00,Wunderground v.1.15,2013-02-12 14:55:00,
2013-02-12 07:00:00,43.5,28.8,30.28,NNW,338,0.0,0.0,56,0.00,,,0.00,Wunderground v.1.15,2013-02-12 15:00:00,
2013-02-12 07:10:00,43.1,29.3,30.29,NNW,327,0.0,3.0,58,0.00,,,0.00,Wunderground v.1.15,2013-02-12 15:10:00,
2013-02-12 07:15:00,43.1,29.3,30.29,North,349,0.0,3.0,58,0.00,,,0.00,Wunderground v.1.15,2013-02-12 15:15:00,
2013-02-12 07:20:00,43.0,29.2,30.29,North,358,0.0,0.0,58,0.00,,,0.00,Wunderground v.1.15,2013-02-12 15:20:00,
2013-02-12 07:25:00,43.1,29.3,30.29,NNE,15,0.0,0.0,58,0.00,,,0.00,Wunderground v.1.15,2013-02-12 15:25:00,
2013-02-12 07:30:00,43.3,29.1,30.30,WNW,293,0.0,0.0,57,0.00,,,0.00,Wunderground v.1.15,2013-02-12 15:30:00,
2013-02-12 07:35:00,43.6,28.9,30.30,NNW,336,0.0,0.0,56,0.00,,,0.00,Wunderground v.1.15,2013-02-12 15:35:00,
2013-02-12 07:40:00,44.2,29.0,30.30,East,86,0.0,0.0,55,0.00,,,0.00,Wunderground v.1.15,2013-02-12 15:40:00,
2013-02-12 07:50:00,44.7,29.5,30.30,NNW,339,0.0,0.0,55,0.00,,,0.00,Wunderground v.1.15,2013-02-12 15:50:00,
2013-02-12 07:55:00,44.9,29.7,30.30,NNW,339,0.0,0.0,55,0.00,,,0.00,Wunderground v.1.15,2013-02-12 15:55:00,
2013-02-12 08:00:00,45.1,31.2,30.30,NNW,334,0.0,0.0,58,0.00,,,0.00,Wunderground v.1.15,2013-02-12 16:00:00,
2013-02-12 08:10:00,45.2,31.3,30.31,East,82,0.0,0.0,58,0.00,,,0.00,Wunderground v.1.15,2013-02-12 16:10:00,
2013-02-12 08:15:00,45.4,32.3,30.31,ESE,113,0.0,0.0,60,0.00,,,0.00,Wunderground v.1.15,2013-02-12 16:15:00,
2013-02-12 08:20:00,46.0,32.9,30.31,ESE,113,0.0,1.0,60,0.00,,,0.00,Wunderground v.1.15,2013-02-12 16:20:00,
2013-02-12 08:30:00,46.7,32.3,30.31,ESE,116,1.0,1.0,57,0.00,,,0.00,Wunderground v.1.15,2013-02-12 16:30:00,
2013-02-12 08:35:00,46.9,32.9,30.31,East,92,1.0,1.0,58,0.00,,,0.00,Wunderground v.1.15,2013-02-12 16:35:00,
2013-02-12 08:45:00,47.4,34.2,30.31,ESE,110,1.0,2.0,60,0.00,,,0.00,Wunderground v.1.15,2013-02-12 16:45:00,
2013-02-12 08:50:00,47.8,33.7,30.31,ESE,106,1.0,2.0,58,0.00,,,0.00,Wunderground v.1.15,2013-02-12 16:50:00,
2013-02-12 08:55:00,48.4,33.0,30.32,SW,235,2.0,2.0,55,0.00,,,0.00,Wunderground v.1.15,2013-02-12 16:55:00,
2013-02-12 09:00:00,48.7,31.4,30.32,West,268,1.0,1.0,51,0.00,,,0.00,Wunderground v.1.15,2013-02-12 17:00:00,
2013-02-12 09:10:00,49.5,33.5,30.32,West,263,0.0,0.0,54,0.00,,,0.00,Wunderground v.1.15,2013-02-12 17:10:00,
2013-02-12 09:15:00,50.2,34.6,30.32,WSW,253,0.0,0.0,55,0.00,,,0.00,Wunderground v.1.15,2013-02-12 17:15:00,
2013-02-12 09:25:00,50.8,35.7,30.32,SW,236,0.0,0.0,56,0.00,,,0.00,Wunderground v.1.15,2013-02-12 17:25:00,
2013-02-12 09:30:00,51.2,36.5,30.32,WSW,248,0.0,0.0,57,0.00,,,0.00,Wunderground v.1.15,2013-02-12 17:30:00,
2013-02-12 09:35:00,51.3,37.9,30.32,SW,226,0.0,0.0,60,0.00,,,0.00,Wunderground v.1.15,2013-02-12 17:35:00,
2013-02-12 09:40:00,51.7,37.8,30.32,SW,231,0.0,0.0,59,0.00,,,0.00,Wunderground v.1.15,2013-02-12 17:40:00,
2013-02-12 09:45:00,52.2,37.9,30.33,SW,232,0.0,0.0,58,0.00,,,0.00,Wunderground v.1.15,2013-02-12 17:45:00,
2013-02-12 09:50:00,53.0,38.6,30.33,SW,232,0.0,0.0,58,0.00,,,0.00,Wunderground v.1.15,2013-02-12 17:50:00,
2013-02-12 09:55:00,54.0,39.5,30.33,SW,232,0.0,0.0,58,0.00,,,0.00,Wunderground v.1.15,2013-02-12 17:55:00,
2013-02-12 10:00:00,54.0,39.5,30.33,WSW,239,0.0,0.0,58,0.00,,,0.00,Wunderground v.1.15,2013-02-12 18:00:00,
2013-02-12 10:10:00,54.8,39.4,30.33,WSW,250,0.0,0.0,56,0.00,,,0.00,Wunderground v.1.15,2013-02-12 18:10:00,
2013-02-12 10:15:00,55.4,40.0,30.33,NE,44,0.0,0.0,56,0.00,,,0.00,Wunderground v.1.15,2013-02-12 18:15:00,
2013-02-12 10:25:00,55.3,40.3,30.33,North,355,0.0,0.0,57,0.00,,,0.00,Wunderground v.1.15,2013-02-12 18:25:00,
2013-02-12 10:30:00,55.7,40.7,30.33,West,264,0.0,1.0,57,0.00,,,0.00,Wunderground v.1.15,2013-02-12 18:30:00,
2013-02-12 10:35:00,56.1,41.1,30.33,SW,222,0.0,1.0,57,0.00,,,0.00,Wunderground v.1.15,2013-02-12 18:35:00,
2013-02-12 10:40:00,57.0,42.4,30.33,SE,145,0.0,0.0,58,0.00,,,0.00,Wunderground v.1.15,2013-02-12 18:40:00,
2013-02-12 10:50:00,57.1,42.0,30.33,West,266,0.0,0.0,57,0.00,,,0.00,Wunderground v.1.15,2013-02-12 18:50:00,
2013-02-12 11:00:00,56.9,43.6,30.32,WNW,299,0.0,1.0,61,0.00,,,0.00,Wunderground v.1.15,2013-02-12 19:00:00,
2013-02-12 11:10:00,57.2,42.1,30.32,WNW,294,1.0,1.0,57,0.00,,,0.00,Wunderground v.1.15,2013-02-12 19:10:00,
2013-02-12 11:15:00,57.2,43.0,30.32,WNW,294,1.0,1.0,59,0.00,,,0.00,Wunderground v.1.15,2013-02-12 19:15:00,
2013-02-12 11:25:00,57.0,42.4,30.32,SW,227,1.0,1.0,58,0.00,,,0.00,Wunderground v.1.15,2013-02-12 19:25:00,
2013-02-12 11:30:00,57.8,44.4,30.32,SSE,160,1.0,1.0,61,0.00,,,0.00,Wunderground v.1.15,2013-02-12 19:30:00,
2013-02-12 11:35:00,58.3,43.6,30.32,WSW,250,0.0,0.0,58,0.00,,,0.00,Wunderground v.1.15,2013-02-12 19:35:00,
2013-02-12 11:45:00,57.2,43.9,30.32,WNW,290,1.0,1.0,61,0.00,,,0.00,Wunderground v.1.15,2013-02-12 19:45:00,
2013-02-12 11:50:00,56.5,43.6,30.32,WNW,293,1.0,2.0,62,0.00,,,0.00,Wunderground v.1.15,2013-02-12 19:50:00,
2013-02-12 11:55:00,56.1,44.9,30.32,West,273,1.0,1.0,66,0.00,,,0.00,Wunderground v.1.15,2013-02-12 19:55:00,
2013-02-12 12:00:00,56.5,45.3,30.32,WSW,257,1.0,1.0,66,0.00,,,0.00,Wunderground v.1.15,2013-02-12 20:00:00,
2013-02-12 12:10:00,56.1,44.5,30.32,WNW,294,1.0,1.0,65,0.00,,,0.00,Wunderground v.1.15,2013-02-12 20:10:00,
2013-02-12 12:15:00,55.8,45.0,30.32,SW,214,1.0,1.0,67,0.00,,,0.00,Wunderground v.1.15,2013-02-12 20:15:00,
2013-02-12 12:25:00,56.6,45.8,30.32,SW,228,1.0,1.0,67,0.00,,,0.00,Wunderground v.1.15,2013-02-12 20:25:00,
2013-02-12 12:30:00,56.4,45.2,30.31,WNW,299,1.0,1.0,66,0.00,,,0.00,Wunderground v.1.15,2013-02-12 20:30:00,
2013-02-12 12:35:00,56.4,46.0,30.31,NW,323,1.0,1.0,68,0.00,,,0.00,Wunderground v.1.15,2013-02-12 20:35:00,
2013-02-12 12:40:00,56.7,45.9,30.31,West,280,1.0,1.0,67,0.00,,,0.00,Wunderground v.1.15,2013-02-12 20:40:00,
2013-02-12 12:45:00,56.5,45.7,30.31,SW,235,1.0,1.0,67,0.00,,,0.00,Wunderground v.1.15,2013-02-12 20:45:00,
2013-02-12 12:50:00,56.7,46.6,30.31,WNW,293,1.0,1.0,69,0.00,,,0.00,Wunderground v.1.15,2013-02-12 20:50:00,
2013-02-12 12:55:00,56.8,46.0,30.30,West,269,1.0,1.0,67,0.00,,,0.00,Wunderground v.1.15,2013-02-12 20:55:00,
2013-02-12 13:00:00,56.8,46.3,30.30,SW,236,1.0,1.0,68,0.00,,,0.00,Wunderground v.1.15,2013-02-12 21:00:00,
2013-02-12 13:10:00,57.0,46.9,30.30,SW,215,1.0,1.0,69,0.00,,,0.00,Wunderground v.1.15,2013-02-12 21:10:00,
2013-02-12 13:15:00,57.4,46.5,30.30,West,262,1.0,1.0,67,0.00,,,0.00,Wunderground v.1.15,2013-02-12 21:15:00,
2013-02-12 13:25:00,57.6,47.1,30.30,WNW,293,1.0,1.0,68,0.00,,,0.00,Wunderground v.1.15,2013-02-12 21:25:00,
2013-02-12 13:30:00,57.2,46.7,30.29,WNW,294,1.0,1.0,68,0.00,,,0.00,Wunderground v.1.15,2013-02-12 21:30:00,
2013-02-12 13:35:00,57.5,47.0,30.29,SW,221,1.0,1.0,68,0.00,,,0.00,Wunderground v.1.15,2013-02-12 21:35:00,
2013-02-12 13:45:00,57.0,46.1,30.29,West,281,1.0,1.0,67,0.00,,,0.00,Wunderground v.1.15,2013-02-12 21:45:00,
2013-02-12 13:50:00,56.5,46.1,30.29,SW,229,1.0,1.0,68,0.00,,,0.00,Wunderground v.1.15,2013-02-12 21:50:00,
2013-02-12 13:55:00,56.5,46.4,30.29,WNW,295,1.0,1.0,69,0.00,,,0.00,Wunderground v.1.15,2013-02-12 21:55:00,
2013-02-12 14:00:00,56.5,46.4,30.29,WSW,253,1.0,2.0,69,0.00,,,0.00,Wunderground v.1.15,2013-02-12 22:00:00,
2013-02-12 14:10:00,57.4,46.5,30.28,East,79,1.0,1.0,67,0.00,,,0.00,Wunderground v.1.15,2013-02-12 22:10:00,
2013-02-12 14:15:00,56.5,46.4,30.28,SW,221,1.0,1.0,69,0.00,,,0.00,Wunderground v.1.15,2013-02-12 22:15:00,
2013-02-12 14:20:00,56.6,46.5,30.28,East,96,1.0,2.0,69,0.00,,,0.00,Wunderground v.1.15,2013-02-12 22:20:00,
2013-02-12 14:35:00,56.5,46.8,30.28,SE,138,1.0,1.0,70,0.00,,,0.00,Wunderground v.1.15,2013-02-12 22:35:00,
2013-02-12 14:40:00,56.4,47.1,30.28,SW,236,1.0,1.0,71,0.00,,,0.00,Wunderground v.1.15,2013-02-12 22:40:00,
2013-02-12 14:45:00,56.1,47.2,30.28,WSW,243,1.0,1.0,72,0.00,,,0.00,Wunderground v.1.15,2013-02-12 22:45:00,
2013-02-12 14:50:00,56.6,47.3,30.28,WSW,243,0.0,1.0,71,0.00,,,0.00,Wunderground v.1.15,2013-02-12 22:50:00,
2013-02-12 14:55:00,56.5,47.2,30.29,SE,146,0.0,1.0,71,0.00,,,0.00,Wunderground v.1.15,2013-02-12 22:55:00,
2013-02-12 15:00:00,55.8,46.5,30.28,NW,309,1.0,1.0,71,0.00,,,0.00,Wunderground v.1.15,2013-02-12 23:00:00,
2013-02-12 15:10:00,56.5,47.2,30.28,NNE,30,0.0,0.0,71,0.00,,,0.00,Wunderground v.1.15,2013-02-12 23:10:00,
2013-02-12 15:15:00,56.4,46.7,30.28,WSW,246,0.0,1.0,70,0.00,,,0.00,Wunderground v.1.15,2013-02-12 23:15:00,
2013-02-12 15:20:00,55.7,46.4,30.28,SW,227,0.0,0.0,71,0.00,,,0.00,Wunderground v.1.15,2013-02-12 23:20:00,
2013-02-12 15:25:00,55.8,46.9,30.28,ENE,73,0.0,2.0,72,0.00,,,0.00,Wunderground v.1.15,2013-02-12 23:25:00,
2013-02-12 15:30:00,55.3,46.8,30.28,SE,138,1.0,1.0,73,0.00,,,0.00,Wunderground v.1.15,2013-02-12 23:30:00,
2013-02-12 15:35:00,55.2,46.7,30.28,West,271,1.0,1.0,73,0.00,,,0.00,Wunderground v.1.15,2013-02-12 23:35:00,
2013-02-12 15:40:00,55.0,46.1,30.28,WNW,300,0.0,1.0,72,0.00,,,0.00,Wunderground v.1.15,2013-02-12 23:40:00,
2013-02-12 15:50:00,54.8,46.3,30.28,WNW,293,0.0,0.0,73,0.00,,,0.00,Wunderground v.1.15,2013-02-12 23:50:00,
2013-02-12 15:55:00,54.4,46.3,30.28,WSW,255,0.0,0.0,74,0.00,,,0.00,Wunderground v.1.15,2013-02-12 23:55:00,
2013-02-12 16:00:00,53.9,46.2,30.28,NNW,338,0.0,0.0,75,0.00,,,0.00,Wunderground v.1.15,2013-02-13 00:00:00,
2013-02-12 16:10:00,53.4,45.7,30.28,West,263,0.0,0.0,75,0.00,,,0.00,Wunderground v.1.15,2013-02-13 00:10:00,
2013-02-12 16:15:00,52.9,45.9,30.28,WNW,297,1.0,1.0,77,0.00,,,0.00,Wunderground v.1.15,2013-02-13 00:15:00,
2013-02-12 16:20:00,52.6,45.9,30.28,West,274,1.0,1.0,78,0.00,,,0.00,Wunderground v.1.15,2013-02-13 00:20:00,
2013-02-12 16:25:00,52.5,45.8,30.27,West,259,0.0,1.0,78,0.00,,,0.00,Wunderground v.1.15,2013-02-13 00:25:00,
2013-02-12 16:35:00,52.2,45.9,30.27,WSW,257,0.0,0.0,79,0.00,,,0.00,Wunderground v.1.15,2013-02-13 00:35:00,
2013-02-12 16:40:00,52.1,45.8,30.27,WSW,245,0.0,0.0,79,0.00,,,0.00,Wunderground v.1.15,2013-02-13 00:40:00,
2013-02-12 16:45:00,51.9,45.6,30.27,WNW,287,0.0,0.0,79,0.00,,,0.00,Wunderground v.1.15,2013-02-13 00:45:00,
2013-02-12 16:50:00,51.6,45.3,30.27,WNW,287,0.0,0.0,79,0.00,,,0.00,Wunderground v.1.15,2013-02-13 00:50:00,
2013-02-12 16:55:00,51.5,45.5,30.27,WSW,243,0.0,0.0,80,0.00,,,0.00,Wunderground v.1.15,2013-02-13 00:55:00,
2013-02-12 17:00:00,51.1,45.1,30.27,SE,127,0.0,0.0,80,0.00,,,0.00,Wunderground v.1.15,2013-02-13 01:00:00,
2013-02-12 17:10:00,49.5,44.9,30.27,ENE,76,1.0,1.0,84,0.00,,,0.00,Wunderground v.1.15,2013-02-13 01:10:00,
2013-02-12 17:15:00,49.0,44.7,30.27,East,80,2.0,2.0,85,0.00,,,0.00,Wunderground v.1.15,2013-02-13 01:15:00,
2013-02-12 17:20:00,48.5,44.2,30.27,East,80,1.0,1.0,85,0.00,,,0.00,Wunderground v.1.15,2013-02-13 01:20:00,
2013-02-12 17:25:00,48.4,44.4,30.27,East,80,1.0,1.0,86,0.00,,,0.00,Wunderground v.1.15,2013-02-13 01:25:00,
2013-02-12 17:30:00,48.3,43.7,30.27,East,81,0.0,0.0,84,0.00,,,0.00,Wunderground v.1.15,2013-02-13 01:30:00,
2013-02-12 17:35:00,48.3,44.0,30.28,East,80,0.0,0.0,85,0.00,,,0.00,Wunderground v.1.15,2013-02-13 01:35:00,
2013-02-12 17:45:00,47.1,43.4,30.28,West,280,1.0,1.0,87,0.00,,,0.00,Wunderground v.1.15,2013-02-13 01:45:00,
2013-02-12 17:50:00,46.4,43.0,30.28,West,278,1.0,1.0,88,0.00,,,0.00,Wunderground v.1.15,2013-02-13 01:50:00,
2013-02-12 18:00:00,45.6,42.8,30.28,West,269,1.0,1.0,90,0.00,,,0.00,Wunderground v.1.15,2013-02-13 02:00:00,
2013-02-12 18:10:00,45.2,42.7,30.28,West,268,0.0,0.0,91,0.00,,,0.00,Wunderground v.1.15,2013-02-13 02:10:00,
2013-02-12 18:20:00,44.5,41.7,30.28,West,268,0.0,0.0,90,0.00,,,0.00,Wunderground v.1.15,2013-02-13 02:20:00,
2013-02-12 18:25:00,44.4,41.7,30.28,West,269,0.0,0.0,90,0.00,,,0.00,Wunderground v.1.15,2013-02-13 02:25:00,
2013-02-12 18:30:00,44.5,41.7,30.28,West,268,0.0,0.0,90,0.00,,,0.00,Wunderground v.1.15,2013-02-13 02:30:00,
2013-02-12 18:35:00,44.7,41.9,30.28,NE,43,0.0,1.0,90,0.00,,,0.00,Wunderground v.1.15,2013-02-13 02:35:00,
2013-02-12 18:50:00,44.8,41.2,30.29,ENE,63,0.0,0.0,87,0.00,,,0.00,Wunderground v.1.15,2013-02-13 02:50:00,
2013-02-12 18:55:00,44.6,40.4,30.28,ENE,62,0.0,0.0,85,0.00,,,0.00,Wunderground v.1.15,2013-02-13 02:55:00,
2013-02-12 19:00:00,44.7,39.9,30.28,ENE,62,0.0,0.0,83,0.00,,,0.00,Wunderground v.1.15,2013-02-13 03:00:00,
2013-02-12 19:10:00,44.5,38.4,30.28,NNW,342,1.0,1.0,79,0.00,,,0.00,Wunderground v.1.15,2013-02-13 03:10:00,
2013-02-12 19:20:00,44.8,37.7,30.29,North,9,0.0,0.0,76,0.00,,,0.00,Wunderground v.1.15,2013-02-13 03:20:00,
2013-02-12 19:25:00,44.8,37.4,30.28,North,9,0.0,0.0,75,0.00,,,0.00,Wunderground v.1.15,2013-02-13 03:25:00,
2013-02-12 19:30:00,44.8,37.0,30.28,NE,38,0.0,0.0,74,0.00,,,0.00,Wunderground v.1.15,2013-02-13 03:30:00,
2013-02-12 19:40:00,45.1,37.0,30.29,NNE,20,0.0,0.0,73,0.00,,,0.00,Wunderground v.1.15,2013-02-13 03:40:00,
2013-02-12 19:45:00,45.0,36.5,30.29,North,1,0.0,2.0,72,0.00,,,0.00,Wunderground v.1.15,2013-02-13 03:45:00,
2013-02-12 19:50:00,45.0,35.8,30.29,NNW,340,0.0,0.0,70,0.00,,,0.00,Wunderground v.1.15,2013-02-13 03:50:00,
2013-02-12 19:55:00,44.9,35.0,30.29,NNW,340,0.0,0.0,68,0.00,,,0.00,Wunderground v.1.15,2013-02-13 03:55:00,
2013-02-12 20:00:00,44.8,34.1,30.29,NNW,340,0.0,0.0,66,0.00,,,0.00,Wunderground v.1.15,2013-02-13 04:00:00,
2013-02-12 20:10:00,44.7,34.0,30.29,NNW,340,0.0,0.0,66,0.00,,,0.00,Wunderground v.1.15,2013-02-13 04:10:00,
2013-02-12 20:15:00,44.8,34.5,30.29,NNW,340,0.0,0.0,67,0.00,,,0.00,Wunderground v.1.15,2013-02-13 04:15:00,
2013-02-12 20:20:00,45.1,34.8,30.30,NNE,14,0.0,0.0,67,0.00,,,0.00,Wunderground v.1.15,2013-02-13 04:20:00,
2013-02-12 20:25:00,45.1,34.4,30.30,NNE,13,0.0,0.0,66,0.00,,,0.00,Wunderground v.1.15,2013-02-13 04:25:00,
2013-02-12 20:35:00,45.0,33.5,30.29,NNE,13,0.0,0.0,64,0.00,,,0.00,Wunderground v.1.15,2013-02-13 04:35:00,
2013-02-12 20:40:00,44.9,33.5,30.29,NNE,13,0.0,0.0,64,0.00,,,0.00,Wunderground v.1.15,2013-02-13 04:40:00,
2013-02-12 20:45:00,44.7,33.6,30.30,NNE,13,0.0,1.0,65,0.00,,,0.00,Wunderground v.1.15,2013-02-13 04:45:00,
2013-02-12 20:50:00,44.7,33.3,30.30,North,9,0.0,1.0,64,0.00,,,0.00,Wunderground v.1.15,2013-02-13 04:50:00,
2013-02-12 21:00:00,45.1,33.2,30.30,ENE,72,0.0,2.0,63,0.00,,,0.00,Wunderground v.1.15,2013-02-13 05:00:00,
2013-02-12 21:05:00,45.1,33.2,30.30,ENE,67,0.0,2.0,63,0.00,,,0.00,Wunderground v.1.15,2013-02-13 05:05:00,
2013-02-12 21:10:00,44.9,33.1,30.30,ENE,67,0.0,0.0,63,0.00,,,0.00,Wunderground v.1.15,2013-02-13 05:10:00,
2013-02-12 21:15:00,44.7,33.3,30.30,ENE,67,0.0,0.0,64,0.00,,,0.00,Wunderground v.1.15,2013-02-13 05:15:00,
2013-02-12 21:20:00,44.4,33.0,30.30,ENE,66,0.0,0.0,64,0.00,,,0.00,Wunderground v.1.15,2013-02-13 05:20:00,
2013-02-12 21:25:00,44.4,33.4,30.30,ENE,66,0.0,0.0,65,0.00,,,0.00,Wunderground v.1.15,2013-02-13 05:25:00,
2013-02-12 21:30:00,44.5,33.5,30.30,ENE,67,0.0,0.0,65,0.00,,,0.00,Wunderground v.1.15,2013-02-13 05:30:00,
2013-02-12 21:35:00,44.5,33.5,30.30,ENE,67,0.0,0.0,65,0.00,,,0.00,Wunderground v.1.15,2013-02-13 05:35:00,
2013-02-12 21:40:00,44.2,33.2,30.30,ENE,67,0.0,0.0,65,0.00,,,0.00,Wunderground v.1.15,2013-02-13 05:40:00,
2013-02-12 21:45:00,44.0,33.7,30.30,NE,53,0.0,0.0,67,0.00,,,0.00,Wunderground v.1.15,2013-02-13 05:45:00,
2013-02-12 21:55:00,44.2,32.8,30.30,NE,53,0.0,0.0,64,0.00,,,0.00,Wunderground v.1.15,2013-02-13 05:55:00,
2013-02-12 22:00:00,45.0,33.2,30.30,ENE,57,0.0,0.0,63,0.00,,,0.00,Wunderground v.1.15,2013-02-13 06:00:00,
2013-02-12 22:10:00,45.9,34.0,30.30,ENE,57,0.0,0.0,63,0.00,,,0.00,Wunderground v.1.15,2013-02-13 06:10:00,
2013-02-12 22:15:00,46.0,33.7,30.30,ENE,57,0.0,0.0,62,0.00,,,0.00,Wunderground v.1.15,2013-02-13 06:15:00,
2013-02-12 22:25:00,45.9,33.2,30.30,NE,42,0.0,0.0,61,0.00,,,0.00,Wunderground v.1.15,2013-02-13 06:25:00,
2013-02-12 22:30:00,46.1,33.4,30.29,NE,49,0.0,0.0,61,0.00,,,0.00,Wunderground v.1.15,2013-02-13 06:30:00,
2013-02-12 22:35:00,46.5,33.8,30.29,ENE,60,0.0,1.0,61,0.00,,,0.00,Wunderground v.1.15,2013-02-13 06:35:00,
2013-02-12 22:40:00,46.9,33.7,30.30,NW,321,1.0,1.0,60,0.00,,,0.00,Wunderground v.1.15,2013-02-13 06:40:00,
2013-02-12 22:45:00,47.2,34.0,30.30,ESE,108,0.0,0.0,60,0.00,,,0.00,Wunderground v.1.15,2013-02-13 06:45:00,
2013-02-12 22:50:00,47.4,34.2,30.30,WNW,290,0.0,1.0,60,0.00,,,0.00,Wunderground v.1.15,2013-02-13 06:50:00,
2013-02-12 22:55:00,47.6,34.4,30.30,WNW,302,1.0,1.0,60,0.00,,,0.00,Wunderground v.1.15,2013-02-13 06:55:00,
2013-02-12 23:05:00,47.1,34.7,30.30,NNW,328,0.0,1.0,62,0.00,,,0.00,Wunderground v.1.15,2013-02-13 07:05:00,
2013-02-12 23:10:00,46.8,34.5,30.30,NNW,345,0.0,0.0,62,0.00,,,0.00,Wunderground v.1.15,2013-02-13 07:10:00,
2013-02-12 23:15:00,46.6,34.7,30.30,North,355,0.0,0.0,63,0.00,,,0.00,Wunderground v.1.15,2013-02-13 07:15:00,
2013-02-12 23:20:00,46.9,34.1,30.30,West,273,0.0,0.0,61,0.00,,,0.00,Wunderground v.1.15,2013-02-13 07:20:00,
2013-02-12 23:30:00,47.5,34.3,30.30,WNW,293,0.0,0.0,60,0.00,,,0.00,Wunderground v.1.15,2013-02-13 07:30:00,
2013-02-12 23:35:00,47.6,34.4,30.30,NNE,18,0.0,0.0,60,0.00,,,0.00,Wunderground v.1.15,2013-02-13 07:35:00,
2013-02-12 23:45:00,47.9,34.7,30.30,North,3,0.0,0.0,60,0.00,,,0.00,Wunderground v.1.15,2013-02-13 07:45:00,
2013-02-12 23:50:00,47.7,34.5,30.30,NE,36,0.0,0.0,60,0.00,,,0.00,Wunderground v.1.15,2013-02-13 07:50:00,
2013-02-12 23:55:00,47.9,35.1,30.30,NE,37,0.0,0.0,61,0.00,,,0.00,Wunderground v.1.15,2013-02-13 07:55:00,